Regional Weather Roundup
Issued by NWS

Home | Current Version | Previous Version | Text Only | Print | Product List | Glossary On
Versions: 1 2 3 4 5 6 7 8 9 10 11 12 13 14 15 16 17 18 19 20 21 22 23 24 25 26 27 28
000
ASUS44 KLIX 270016
RWRLA
LOUISIANA WEATHER ROUNDUP
NATIONAL WEATHER SERVICE NEW ORLEANS LA
700 PM CDT MON SEP 26 2016

NOTE: "FAIR" INDICATES FEW OR NO CLOUDS BELOW 12,000 FEET WITH NO
      SIGNIFICANT WEATHER AND/OR OBSTRUCTIONS TO VISIBILITY.
      SKY/WX - SKY CONDITION AND SIGNIFICANT WEATHER.
      TMP - AIR TEMPERATURE.    DP   - DEWPOINT TEMPERATURE.
      RH  - RELATIVE HUMIDITY.  PRES - PRESSURE.
      HX  - HEAT INDEX.         WCI  - WIND CHILL INDEX.

*  THESE STATIONS ARE NOT NWS OR FAA STATIONS AND ARE NOT UNDER
   NWS QUALITY CONTROL.

LAZ040-048-061>063-065-066-069-270100-
SOUTHEAST LOUISIANA

CITY           SKY/WX    TMP DP  RH WIND       PRES   REMARKS
N.O. AUDUBON     N/A     88  73  61 MISG        N/A  HX  95
6HR MIN TEMP:  87; 6HR MAX TEMP:  96;

N.O. INTL ARPT CLOUDY    85  73  67 NW10      29.95R
6HR MIN TEMP:  85; 6HR MAX TEMP:  95;

N.O. LAKEFRONT CLOUDY    84  73  69 NE15      29.95R
6HR MIN TEMP:  83; 6HR MAX TEMP:  91;

N.O. DOWNTOWN*   N/A     84  73  70 VRB3      29.96R
6HR MIN TEMP:  85; 6HR MAX TEMP:  94;

RESERVE*       FAIR      76  73  91 CALM      29.96S
6HR MIN TEMP:  76; 6HR MAX TEMP:  94; 6HR PCP:  0.35;

SLIDELL        CLOUDY    75  72  90 CALM      29.94S
6HR MIN TEMP:  74; 6HR MAX TEMP:  92; 6HR PCP:  0.32;

BATON ROUGE    PTCLDY    81  72  74 CALM      29.96R
6HR MIN TEMP:  81; 6HR MAX TEMP:  93; 6HR PCP: TRACE;

BOOTHVILLE     CLEAR     84  71  65 SE3       29.94S
6HR MIN TEMP:  84; 6HR MAX TEMP:  89;

BELLE CHASSE   CLOUDY    83  74  74 SW3       29.94R THUNDER
6HR MIN TEMP:  83; 6HR MAX TEMP:  91;

BOGALUSA*      FAIR      78  71  77 CALM      29.96R
6HR MIN TEMP:  78; 6HR MAX TEMP:  93;

GALLIANO*      NOT AVBL
NEW ROADS*     LGT RAIN  76  71  85 MISG      29.97R
6HR MIN TEMP:  75; 6HR MAX TEMP:  92; 6HR PCP:  0.09;

GONZALES*      FAIR      78  71  77 CALM      29.95S
6HR MIN TEMP:  78; 6HR MAX TEMP:  91;

HAMMOND*       CLOUDY    79  72  78 CALM      29.95R
HOUMA*         PTCLDY    81  79  94 CALM      29.94
PORT FOURCHON* CLEAR     86  72  62 SE5       29.95R

$$

LAZ041-044-053-054-270100-
SOUTHWEST LOUISIANA

CITY           SKY/WX    TMP DP  RH WIND       PRES   REMARKS
LAKE CHARLES   PTCLDY    78  75  90 CALM      29.97R
6HR MIN TEMP:  76; 6HR MAX TEMP:  91; 6HR PCP:  0.15;

LAFAYETTE      CLOUDY    85  67  54 SW7       29.96R
6HR MIN TEMP:  85; 6HR MAX TEMP:  93;

PATTERSON      CLOUDY    81  76  84 SW5       29.96R
6HR MIN TEMP:  81; 6HR MAX TEMP:  91;

SALT POINT     NOT AVBL
NEW IBERIA     CLOUDY    83  68  60 SW3       29.96R
6HR MIN TEMP:  83; 6HR MAX TEMP:  92;

CHENAULT AIRPK MOCLDY    79  73  83 SW5       29.97S

$$

LAZ027-028-270100-
CENTRAL LOUISIANA

CITY           SKY/WX    TMP DP  RH WIND       PRES   REMARKS
FORT POLK      LGT RAIN  73  70  88 W7        30.00R FOG
                                      6HR PCP:  2.19;

ALEXANDRIA INT CLOUDY    80  72  76 N6        29.97R
6HR MIN TEMP:  80; 6HR MAX TEMP:  92;

ALEXANDRIA     MOCLDY    78  74  87 CALM      29.98R
6HR MIN TEMP:  77; 6HR MAX TEMP:  93; 6HR PCP:  0.07;


$$

LAZ001-002-270100-
NORTHWEST LOUISIANA

CITY           SKY/WX    TMP DP  RH WIND       PRES   REMARKS
SHREVEPORT     PTCLDY    76  66  71 N10       30.03R
6HR MIN TEMP:  76; 6HR MAX TEMP:  83;

BARKSDALE AFB  CLEAR     75  65  70 N7        30.03R
6HR MIN TEMP:  75; 6HR MAX TEMP:  85;

DTN SHREVEPORT CLEAR     75  65  70 N7        30.04R
6HR MIN TEMP:  75; 6HR MAX TEMP:  82;


$$

LAZ014-016-270100-
NORTHEAST LOUISIANA

CITY           SKY/WX    TMP DP  RH WIND       PRES   REMARKS
MONROE         CLEAR     77  65  66 N10       30.02R
6HR MIN TEMP:  77; 6HR MAX TEMP:  84; 6HR PCP: TRACE;

TALLULAH       CLEAR     77  64  64 N6        30.00R
6HR MIN TEMP:  77; 6HR MAX TEMP:  86;


$$





USA.gov is the U.S. government's official web portal to all federal, state and local government web resources and services.